Location: Ostrava
(49.8330°N, 18.2830°E)
Time: 16:10:24
(UTC+01:00)

Cosmos 1263 Rocket - Visible Passes

Search period start: 30 October 2014 00:00
Search period end: 09 November 2014 00:00
Orbit: 315 x 554 km, 82.9° (Epoch: 29 October)

Date Brightness Start Highest point End Pass type
(mag) Time Alt. Az. Time Alt. Az. Time Alt. Az.
31 Oct 5.1 05:39:51 10° NNE 05:42:18 16° ENE 05:44:48 10° ESE visible
02 Nov 4.4 05:52:14 10° N 05:55:42 29° ENE 05:59:15 10° SE visible
03 Nov 5.2 05:12:31 10° NNE 05:14:51 15° ENE 05:17:14 10° ESE visible
04 Nov 3.0 06:04:36 10° N 06:08:31 58° ENE 06:12:30 10° SSE visible
05 Nov 4.5 05:24:09 10° NNE 05:27:34 27° ENE 05:31:02 10° SE visible
06 Nov 5.3 04:44:15 10° NNE 04:46:21 14° ENE 04:48:28 10° E visible
07 Nov 3.3 05:35:47 10° N 05:39:43 51° ENE 05:43:38 10° SSE visible
08 Nov 4.7 04:55:04 10° NNE 04:58:23 24° ENE 05:01:42 10° SE visible
